sat.trackr.live / text

‹ back to catalog

STARLINK-31476

NORAD 59523 · 2024-073N

PAYLOAD ACTIVE UNKNOWN

§ Identity

Operator
Country
US
Launch date
2024-04-17
Launch site
AFETR
Launch vehicle
Mass (kg)
RCS (m²)

Purposes: comms

External: N2YO · Heavens-Above · Gunter

§ Orbital elements

Epoch: 2026-05-24T17:34:36.232320Z

Period
94.27 min
Inclination
43.0027°
Eccentricity
0.0001336
Mean motion
15.27579758 rev/d
Perigee alt
482.1 km
Apogee alt
484.0 km
Semi-major
6,861.2 km
B*
1.6648e-5
RAAN
248.7194°
Arg perigee
271.7237°
Mean anomaly
88.3461°
Rev number
11,780

§ Raw data

STARLINK-314761 59523U 24073N   26144.73236380  .00000196  00000+0  16648-4 0  99932 59523  43.0027 248.7194 0001336 271.7237  88.3461 15.27579758117802

JSON: /api/v1/satellites/59523 · /tle

For live sub-satellite position, see the globe view (requires WebGL).

§ Visibility from observer

Set your observer location to see the next 7 days of passes ≥ 10°. The values pass through the URL so the page stays shareable.

No JS? Fill the form by hand. The geolocation button needs JavaScript.